Theta_e
318 318 318 317 317 317 318 319 319 320 321 320 320 319 320 319 319 318 319 324 324 323 322 326 331 333 333 337 338 338 340 335 337 340 339 338 339 341 342 343 344 346 347 354 353
317 317 317 317 317 316 316 317 318 319 320 319 319 319 319 319 319 319 322 322 323 322 321 332 329 329 331 335 338 338 338 333 335 340 340 339 341 340 340 341 344 346 347 347 351
315 315 316 316 316 316 315 316 317 318 320 319 318 319 319 319 322 324 324 322 320 320 322 330 329 330 333 338 337 337 334 333 334 338 339 340 342 342 342 343 345 347 347 348 348
313 314 314 315 316 316 316 315 316 319 321 318 318 317 318 319 335 329 325 323 319 319 322 332 328 330 335 338 336 336 333 333 333 337 339 342 342 343 344 343 344 346 347 347 347
311 312 313 314 315 315 315 315 315 319 322 319 319 316 318 324 328 333 325 320 319 319 326 329 327 332 337 336 336 336 333 333 332 337 338 339 341 340 342 344 344 345 346 347 347
309 311 311 313 314 314 315 315 315 322 324 320 317 316 318 332 334 332 322 320 319 321 329 325 328 332 337 335 335 334 333 333 332 335 337 340 341 343 343 344 344 345 346 346 346
308 309 310 311 313 314 314 314 315 323 322 319 316 315 329 331 333 330 323 320 321 324 326 326 327 332 335 336 335 333 333 332 333 334 338 338 343 345 344 344 344 345 345 345 345
307 308 309 310 311 313 314 314 315 324 320 319 316 316 331 330 331 326 324 322 323 324 325 326 328 334 335 336 334 334 335 332 333 335 338 342 347 345 345 345 345 345 345 345 345
307 308 309 309 310 312 313 314 316 324 323 319 318 320 330 329 330 324 324 324 324 325 325 326 330 334 335 336 334 334 335 334 333 335 337 341 343 345 346 346 345 345 345 345 345
307 307 308 309 310 312 313 315 316 324 324 320 324 331 329 332 330 325 323 323 324 325 326 327 330 333 335 335 336 335 335 335 334 333 335 340 342 342 346 346 347 346 345 345 346
307 307 308 309 310 311 314 315 333 329 330 330 327 328 332 331 330 326 325 325 324 325 327 328 329 332 335 335 336 336 335 336 334 333 334 341 344 343 343 345 346 347 346 346 347
307 308 308 309 310 311 312 318 330 328 328 332 331 329 331 332 330 326 325 326 325 326 327 330 329 331 334 335 335 335 335 334 334 334 333 340 343 342 341 343 344 346 347 347 348
307 308 309 309 310 314 321 323 322 324 327 328 329 330 328 332 330 327 326 325 326 327 328 330 331 332 332 333 334 334 334 334 334 334 333 334 336 341 342 341 344 340 345 346 348
307 308 309 310 312 320 318 325 323 325 328 328 329 330 328 331 330 328 326 325 328 327 329 330 333 332 332 332 332 332 334 335 335 334 333 333 334 344 343 341 345 342 344 344 347
306 307 308 307 310 313 318 320 323 326 330 328 329 330 329 329 331 331 327 326 330 329 329 331 332 332 332 332 332 333 334 334 335 335 335 335 334 338 338 343 342 344 344 343 346
306 307 307 308 312 312 314 317 322 329 329 330 330 330 330 329 331 330 328 326 329 332 332 332 332 334 333 332 333 334 335 335 333 334 335 336 337 338 338 341 342 341 343 343 345
306 307 307 308 311 316 316 317 326 329 328 330 331 330 329 330 331 332 331 329 331 332 333 333 333 334 332 332 333 334 335 335 334 333 334 335 335 338 337 339 340 342 340 344 343
307 308 309 310 311 313 314 321 327 328 329 330 331 331 329 330 331 331 332 331 331 332 333 333 333 334 333 333 334 333 334 335 341 339 337 336 336 336 337 336 336 336 336 340 344
307 309 313 316 312 314 316 320 326 328 329 330 331 331 330 330 331 332 332 333 331 332 335 334 333 334 332 333 334 334 334 334 335 336 339 339 338 337 336 335 334 336 337 336 338
306 309 313 316 317 315 318 319 323 326 329 331 331 332 331 330 330 331 332 333 332 332 333 334 334 334 333 332 333 334 334 333 334 340 341 338 341 337 339 336 337 337 338 337 336
308 316 319 316 318 316 317 319 321 323 326 329 331 331 332 331 330 331 332 332 332 332 332 333 334 335 334 332 332 333 334 335 334 335 336 339 340 342 342 339 337 336 338 341 343
310 316 318 318 320 319 318 318 320 323 323 326 331 331 331 332 332 331 331 332 332 332 332 332 333 336 334 334 333 333 334 336 338 341 338 340 340 336 335 335 334 336 336 337 340
311 314 317 320 321 321 320 319 320 321 323 325 329 331 331 332 334 332 332 333 332 332 334 335 334 334 336 334 333 332 333 333 334 335 341 339 338 337 336 335 334 335 336 337 337
310 317 317 318 320 322 322 321 321 320 322 324 327 330 330 330 332 335 332 333 333 332 331 333 333 337 335 337 335 335 332 333 334 338 337 336 341 341 339 338 337 336 336 337 340
310 315 318 322 321 323 322 323 324 322 322 323 325 327 328 330 331 333 334 334 333 332 333 333 339 336 332 333 335 334 333 333 334 335 337 337 337 340 343 341 337 337 337 338 338
310 315 315 317 320 325 325 322 324 325 323 323 325 326 327 330 331 332 334 335 335 332 332 332 337 336 333 332 333 334 335 333 332 333 334 334 335 343 340 336 335 334 334 334 336
313 313 313 315 317 319 324 326 322 325 326 324 325 326 326 327 328 331 333 334 335 335 336 334 336 339 337 333 333 334 335 334 335 335 334 336 338 342 340 338 334 334 333 333 333
Wind_Speed
16 15 15 15 16 15 14 15 15 15 14 13 12 10 11 11 12 13 16 10 12 12 9 5 12 16 16 18 20 16 11 9 12 14 13 18 15 17 16 15 23 19 27 32 29
16 16 16 16 16 16 16 15 16 15 14 10 9 9 9 9 12 19 17 16 18 14 10 9 12 13 16 20 11 10 6 12 7 15 18 17 18 19 18 22 27 29 28 27 28
16 16 17 17 17 16 16 16 15 15 12 7 7 7 8 7 9 18 13 18 18 16 12 11 13 14 18 21 11 12 9 12 6 16 18 13 20 13 19 17 26 31 30 27 25
16 16 17 17 18 17 17 16 15 14 10 7 7 7 7 6 3 2 7 16 16 15 14 12 13 17 19 13 2 5 5 12 8 4 13 18 22 24 18 23 26 28 28 26 24
17 17 17 17 18 18 18 17 15 13 10 6 6 6 7 7 15 5 7 13 17 18 16 14 16 19 19 7 6 6 9 6 11 6 15 21 21 18 20 24 25 27 24 24 22
18 18 18 18 18 18 18 17 16 13 9 6 6 7 8 12 2 6 5 13 16 19 15 16 16 18 16 5 8 9 4 10 14 4 13 21 19 20 20 24 25 24 23 21 20
19 18 19 19 18 18 18 17 14 11 6 4 4 8 9 14 2 5 10 14 15 17 14 15 17 12 11 2 3 4 10 9 17 11 8 16 16 14 23 24 24 21 21 20 19
21 19 19 19 19 17 17 16 12 8 5 2 2 6 9 10 7 8 12 13 14 15 15 12 12 13 18 11 3 12 15 12 14 15 8 16 10 17 21 24 22 20 20 19 19
23 22 18 19 19 17 16 15 12 6 4 3 3 5 14 11 12 11 16 16 15 14 13 10 12 15 18 12 13 13 14 16 15 17 16 16 16 19 22 21 21 20 20 19 19
23 23 21 18 18 17 14 14 12 8 6 6 8 7 19 17 14 16 15 16 17 14 14 10 11 13 16 13 14 15 10 17 13 12 13 15 15 6 26 24 21 20 20 20 20
23 23 22 19 18 17 12 11 6 4 13 16 14 16 8 13 16 18 18 17 17 17 15 17 12 14 20 18 21 15 6 16 17 15 7 21 19 22 24 26 24 26 23 22 22
23 23 22 19 16 14 11 7 9 11 14 22 23 22 8 18 20 20 21 18 18 17 19 13 18 19 19 20 14 8 10 2 9 16 11 22 23 21 18 22 25 25 23 23 22
23 23 22 19 14 8 9 14 16 12 13 20 26 25 20 17 19 24 25 25 19 19 20 20 19 20 20 18 12 10 11 10 9 14 8 12 11 18 18 17 25 19 24 26 25
22 22 22 20 7 7 9 5 6 7 8 16 26 29 25 20 22 23 28 28 13 20 21 20 22 20 17 12 11 13 14 13 11 12 10 14 12 18 20 16 23 34 32 28 28
23 21 19 17 15 12 7 6 7 5 6 10 26 20 29 27 11 24 28 30 20 18 16 20 18 12 10 13 14 16 16 10 7 6 12 15 11 14 19 18 15 25 32 31 35
23 21 21 9 16 12 14 12 8 7 13 4 20 21 25 26 29 27 28 31 23 18 20 20 21 13 16 15 17 18 1 7 11 11 13 13 14 12 16 14 16 21 31 32 34
26 19 23 18 15 2 7 11 8 11 13 12 21 21 26 24 25 23 25 24 21 17 18 19 22 15 14 16 16 17 12 6 9 10 12 17 11 4 5 16 15 20 25 31 36
29 22 21 22 14 13 9 9 14 13 28 13 18 18 26 25 25 26 25 22 26 23 15 17 16 17 16 20 17 18 14 11 14 10 14 6 8 5 14 13 7 4 2 4 31
29 22 18 17 13 17 16 13 19 23 23 26 17 22 23 27 21 26 27 25 26 26 20 18 22 20 20 18 19 14 15 21 20 16 6 8 10 7 8 6 7 2 4 11 17
30 25 22 15 19 18 13 24 23 27 31 26 23 18 20 26 29 27 24 24 27 28 26 20 14 21 22 17 20 17 17 15 12 11 13 12 16 7 13 10 9 4 7 10 14
19 11 7 20 21 23 16 25 27 35 32 25 24 21 19 21 27 28 28 23 28 26 26 25 20 17 21 17 21 18 17 11 15 12 10 13 5 13 11 11 10 6 7 0 7
8 7 13 17 16 18 18 27 30 27 36 29 23 21 21 19 23 29 30 27 30 29 29 26 17 15 23 17 18 20 18 15 10 11 11 10 9 16 14 10 9 15 12 2 7
10 20 18 19 13 15 20 26 27 28 28 27 23 19 21 23 20 23 29 28 28 24 25 21 19 13 18 21 18 17 17 19 16 13 14 10 5 15 16 15 14 14 11 11 3
8 6 18 27 25 21 21 24 26 36 29 31 26 22 22 23 21 20 23 22 27 27 26 23 19 17 15 16 19 22 22 21 19 12 14 14 12 17 16 12 16 12 8 6 9
7 8 19 9 18 20 23 24 24 27 32 34 25 20 21 21 22 19 19 18 24 17 17 19 17 21 24 20 17 18 20 20 21 14 15 13 10 9 15 13 14 12 8 4 5
9 13 22 25 25 18 17 26 27 24 26 28 23 21 24 23 21 17 20 21 20 15 14 17 13 17 22 22 24 20 23 22 22 19 17 15 13 15 17 18 14 8 6 5 5
12 17 17 16 16 16 15 17 25 24 22 31 23 23 25 21 23 28 16 23 20 17 15 15 13 13 18 23 21 21 20 18 18 21 18 14 10 14 14 12 9 6 4 0 3
Wind_Direction
352 350 347 346 346 344 342 340 336 328 317 301 289 275 269 269 266 260 249 236 241 253 262 285 285 274 277 272 268 283 284 65 64 98 103 103 86 102 121 114 83 113 122 135 136
347 346 343 340 341 341 338 338 335 330 322 300 278 272 271 267 267 257 242 223 234 239 235 248 260 270 268 262 265 269 319 70 50 97 128 95 133 129 119 117 116 117 126 135 138
342 342 340 336 336 337 335 336 334 331 326 307 277 268 262 260 275 244 226 235 231 225 217 251 264 274 265 261 240 283 76 109 102 95 112 122 60 45 120 121 130 136 141 145 145
337 336 336 334 332 333 332 333 333 330 323 304 286 265 246 232 297 160 207 213 220 208 207 239 247 258 251 252 285 292 52 98 113 153 120 111 146 105 134 125 135 140 144 147 151
334 331 332 331 331 330 329 331 331 326 315 293 282 249 228 241 258 246 236 212 202 195 209 224 231 239 251 217 230 254 119 125 131 197 103 96 89 90 99 123 136 143 148 153 154
329 328 327 328 329 328 326 328 331 326 308 282 272 227 217 253 171 251 248 196 190 191 208 216 229 244 305 202 232 96 200 142 143 185 136 115 118 113 114 132 141 150 155 161 159
327 325 323 324 325 325 324 325 330 329 313 290 260 209 241 234 263 227 189 191 186 192 207 215 235 282 238 232 308 175 205 175 145 174 180 135 31 117 132 140 148 157 163 165 165
327 323 322 321 321 321 321 321 322 319 306 296 225 206 251 211 218 194 181 181 188 201 215 221 241 262 269 286 188 248 225 170 158 173 171 103 184 141 141 144 157 164 168 168 172
324 322 321 319 318 317 318 315 309 292 279 246 173 240 253 220 204 194 180 181 188 201 223 229 227 244 253 252 219 214 240 187 164 185 151 151 168 148 154 153 158 168 171 175 177
323 322 319 318 316 314 315 310 293 265 243 241 227 251 235 215 195 186 188 190 187 198 208 221 225 233 245 233 238 217 193 164 173 185 171 164 139 237 168 159 157 173 176 182 182
322 320 319 317 315 313 312 311 298 233 214 222 187 219 145 195 181 188 185 185 190 202 210 209 218 215 231 230 251 296 239 202 163 167 214 154 161 202 183 162 169 169 178 184 185
321 318 316 315 311 306 294 256 335 328 297 242 247 235 256 165 174 190 185 194 198 205 211 191 226 228 230 246 257 279 299 214 152 155 198 169 186 176 186 185 169 168 179 177 181
320 319 316 314 311 308 299 263 284 305 286 268 231 226 205 186 196 192 190 199 198 211 205 225 210 228 237 241 250 212 241 220 233 158 192 261 193 166 184 204 135 152 185 178 180
319 318 319 316 299 261 270 314 264 293 281 255 218 214 207 207 224 195 197 198 193 213 222 226 249 205 236 237 218 223 223 247 190 191 209 219 249 175 183 191 153 182 185 182 182
317 315 312 320 291 262 338 307 288 267 267 209 192 190 198 201 186 205 194 204 228 210 217 221 235 223 224 223 220 242 191 231 259 233 254 215 231 195 196 187 190 195 176 187 181
312 312 303 303 290 255 261 301 277 233 238 238 162 186 192 199 224 180 188 213 225 230 227 240 209 217 227 222 213 235 172 180 239 252 242 228 220 264 184 199 186 219 186 188 184
308 302 291 277 262 338 267 254 227 234 228 241 158 200 197 193 212 180 189 201 218 223 222 224 240 207 215 221 220 223 196 208 224 229 235 239 219 257 129 196 208 202 208 192 180
307 302 282 267 251 233 274 227 231 224 240 253 172 199 202 198 205 217 188 203 215 221 217 218 219 208 199 224 204 210 211 224 208 219 241 171 182 188 103 94 63 349 337 224 152
313 308 273 262 224 195 228 226 219 232 223 243 247 190 209 213 203 208 205 207 208 219 230 205 224 192 218 221 236 200 223 245 262 288 178 226 205 128 135 125 142 161 278 249 231
323 317 274 214 212 192 218 235 231 233 249 268 256 235 209 208 211 213 200 209 217 210 228 244 214 223 194 205 237 217 210 239 256 268 284 218 185 189 140 164 130 190 213 244 233
322 292 300 180 185 206 217 232 232 251 244 260 268 258 243 227 218 216 210 208 214 213 220 238 251 219 188 195 216 221 235 225 245 221 245 257 57 103 131 123 148 159 121 58 262
303 260 198 179 196 224 229 231 248 246 246 258 262 257 258 263 232 224 224 211 207 213 208 226 245 248 197 196 214 231 216 222 243 250 280 305 181 144 137 145 149 110 117 93 315
296 274 250 214 227 231 239 236 243 246 250 243 248 250 264 272 274 240 226 218 213 206 223 203 233 241 244 195 193 233 232 220 233 260 270 274 132 147 152 161 163 143 142 140 188
289 271 222 227 238 254 246 238 232 240 246 249 242 232 237 260 268 272 239 213 213 214 207 224 216 233 227 219 198 205 224 242 236 220 229 245 159 189 174 178 153 150 144 140 162
251 256 297 281 219 233 248 264 258 232 231 240 246 236 241 244 254 260 264 255 209 212 184 227 223 224 241 255 223 204 213 233 243 249 257 247 257 199 165 173 137 136 135 153 179
281 328 319 298 294 293 279 234 253 252 229 220 235 233 240 233 246 243 248 254 220 175 184 210 224 229 242 245 253 245 209 203 224 235 234 258 277 115 132 120 124 142 158 173 169
285 302 317 289 291 288 263 255 237 256 263 241 211 226 248 237 241 244 294 266 251 184 192 212 224 213 234 240 248 245 246 210 212 214 223 229 217 128 128 136 146 162 162 123 53